Preview of NWS' New Version of Forecast
This preview is not operational and should not be used for support decisions.
Latest weather observations around

El Dorado, South Arkansas Regional at Goodwin Field Airport (KELD)

Using English Units (Switch to International System of Units)
Date/ Time (CDT) Wind (mph) Vis. (mi) Weather Sky Cond. Temp (°F) Rel. Humidity Wind Chill (°F) Heat Index (°F) Pressure Precip. (in)
Air Dwpt 6 hour Altimeter (inHg) Sea level (inHg) 1 hr 3 hr 6 hr
Max Min
Apr 22 23:53 W 6 10 Cloudy OVC036 54 52     93%     29.96 29.95      
Apr 22 22:53 W 5 10 Cloudy OVC045 53 51     93%     29.96 29.96      
Apr 22 21:53 W 5 10 Mostly Cloudy BKN047 54 51     90%     29.97 29.96      
Apr 22 20:53 W 6 10 Cloudy OVC042 56 51     84%     29.95 29.95      
Apr 22 19:53 W 9 10 Cloudy OVC039 57 50     77%     29.94 29.93      
Apr 22 18:53 WSW 9 10 Cloudy OVC037 58 51     78%     29.93 29.92      
Apr 22 17:53 W 11 10 Cloudy SCT024 OVC031 59 53     81%     29.93 29.92      
Apr 22 17:49 W 10 10 Cloudy SCT024 OVC031 59 54     82%     29.93        
Apr 22 16:53 W 11 10 Cloudy OVC025 60 54     80%     29.92 29.91      
Apr 22 15:53 W 15 10 Cloudy BKN025 OVC032 62 56     80%     29.91 29.91      
Apr 22 14:53 W 11 10 Cloudy BKN019 OVC025 62 58     86%     29.93 29.92      
Apr 22 14:38 WSW 13 10 Cloudy SCT013 BKN020 OVC050 65 59     81%     29.93        
Apr 22 14:31 W 11 10 Cloudy SCT013 SCT018 OVC049 63 58     84%     29.93        
Apr 22 14:21 W 11 10 Cloudy BKN012 OVC049 63 58     84%     29.93        
Apr 22 14:08 WSW 11 10 Cloudy FEW012 BKN038 OVC049 61 58     90%     29.94        
Apr 22 13:53 W 13 10 Cloudy FEW012 BKN018 OVC037 61 58     90%     29.94 29.94      
Apr 22 13:25 W 9 10 Cloudy SCT018 BKN026 OVC046 63 59     87%     29.93        
Apr 22 12:53 W 9 10 Cloudy FEW026 BKN040 OVC047 63 59     87%     29.93 29.93     0
Apr 22 12:43 WNW 7 10 Cloudy FEW014 BKN030 OVC048 64 60     87%     29.93        
Apr 22 12:02 W 8 10 Cloudy BKN015 OVC022 62 59     90%     29.94        
Apr 22 11:53 WNW 7 10 Cloudy OVC014 61 59     93%     29.94 29.93      
Apr 22 11:42 WNW 7 10 Cloudy OVC013 62 60     93%     29.94        
Apr 22 11:35 WNW 8 10 Cloudy SCT010 OVC017 62 59     90%     29.94        
Apr 22 10:53 WNW 7 10 Cloudy OVC010 60 59     96%     29.95 29.94      
Apr 22 09:53 WNW 7 10 Cloudy SCT004 BKN009 OVC015 59 59     100%     29.95 29.94   0  
Apr 22 09:35 W 10 10 Cloudy OVC004 58 58     100%     29.95        
Apr 22 08:53 W 3 6 Fog/Mist OVC005 60 60     100%     29.95 29.94      
Apr 22 07:53 Calm 5 Fog/Mist OVC004 59 59     100%     29.94 29.94 0    
Apr 22 07:20 Calm 10 Cloudy BKN004 OVC009 59 59     100%     29.94        
Apr 22 07:10 Calm 10 Cloudy OVC005 59 59     100%     29.94        
Apr 22 06:53 Calm 10 Cloudy OVC004 59 59     100%     29.94 29.93     0
Apr 22 05:53 S 8 10 Cloudy OVC003 59 59     100%     29.92 29.91      
Apr 22 04:53 SE 8 10 Cloudy OVC003 59 59     100%     29.91 29.91 0    
Apr 22 04:09 ESE 7 10 Light Rain OVC004 59 59     100%     29.93   0    
Apr 22 03:53 ESE 10 7 Rain BKN005 OVC090 59 59     100%     29.92 29.91 0 0  
Apr 22 03:50 ESE 11 7 Rain BKN005 OVC090 59 59     100%     29.92   0    
Apr 22 03:25 E 10 7 Rain SCT004 SCT055 OVC085 59 59     100%     29.94   0    
Apr 22 03:09 ENE 8 4 Rain and Fog/Mist BKN004 BKN013 OVC055 59 59     100%     29.95   0    
Apr 22 02:53 Calm 6 Rain and Fog/Mist BKN005 OVC013 59 59     100%     29.97 29.96 0    
Apr 22 02:26 E 8 10 Light Rain OVC005 59 59     100%     29.94   0    
Apr 22 01:53 Calm 8 Light Rain BKN004 BKN085 59 59     100%     29.96 29.95 0    
Apr 22 01:15 ENE 10 6 Rain and Fog/Mist BKN003 BKN009 OVC085 58 58     100%     29.97   0    
Apr 22 00:53 NNE 10 5 Heavy Rain and Fog/Mist SCT005 BKN070 OVC085 58 58     100%     29.98 29.98 0   1
Apr 22 00:38 NE 8 5 Heavy Rain FEW005 BKN070 OVC085 57        %     30   0    
Apr 22 00:24 NE 10 5 Heavy Rain and Fog/Mist SCT049 BKN070 OVC090 58 58     100%     29.99   0    
Apr 22 00:09 N 11 4 Thunderstorms and Heavy Rain and Fog/Mist FEW008 BKN041 OVC055 58 58     100%     30   0    
Apr 22 00:02 N 11 3 Thunderstorms and Heavy Rain and Fog/Mist SCT010 BKN029 OVC048 58 58     100%     30.01   0    
Apr 22 00:00 N 11 2.5 Thunderstorms and Heavy Rain and Fog/Mist SCT010 BKN029 OVC048 58 58     100%     30.01   0    
Apr 21 23:53   1.75 Thunderstorms and Heavy Rain and Fog/Mist FEW006 BKN025 OVC036 58 58     100%     30.02 30.01 0    
Apr 21 23:45 W 10 1.75 Heavy Rain and Fog/Mist FEW004 BKN012 OVC036 58 58     100%     30.03   0    
Apr 21 23:36   9 Light Rain FEW014 OVC036 59 59     100%     30   0    
Apr 21 22:53 E 5 10 Light Rain SCT035 OVC100 59 59     100%     29.96 29.96 0    
Apr 21 21:53 E 9 10 Light Rain FEW043 BKN055 OVC100 59 58     96%     29.95 29.95 0 0  
Apr 21 20:53 SE 6 8 Rain SCT080 OVC100 60 57     90%     29.98 29.97 0    
Apr 21 19:53   6 Rain and Fog/Mist FEW055 BKN090 OVC110 59 57     93%     29.96 29.96 0    
Apr 21 18:53 ENE 8 10 Light Rain BKN085 BKN110 65 54     68%     29.99 29.98 0   0
Apr 21 17:53 ESE 8 10 Mostly Cloudy BKN046 68 53     59%     30.02 30.01      
Apr 21 16:53 ESE 8 10 Mostly Clear FEW047 70 53     55%     30.03 30.02      
Apr 21 15:53 ESE 9 10 Clear CLR 70 51     51%     30 30      
Apr 21 14:53 E 8 10 Clear CLR 71 50     47%   70 30.03 30.02      
Apr 21 13:53 ESE 16 10 Clear CLR 73 49     43%   72 30.03 30.02      
Apr 21 12:53 E 10 10 Clear CLR 72 52     49%   71 30.08 30.08      
Apr 21 11:53 E 9 10 Clear CLR 68 51     55%     30.11 30.11      
Apr 21 10:53 E 8 10 Clear CLR 65 50     58%     30.15 30.14      
Apr 21 09:53 E 5 10 Clear CLR 61 51     70%     30.15 30.15      
Apr 21 08:53 ENE 6 10 Clear CLR 55 51     86%     30.16 30.16      
Apr 21 07:53 ENE 5 10 Clear CLR 50 48     93% 48   30.17 30.16      
Apr 21 06:53 Calm 10 Clear CLR 49 47     93%     30.16 30.15      
Apr 21 05:53 ENE 3 10 Clear CLR 47 46     97% 46   30.14 30.13      
Apr 21 04:53 Calm 10 Clear CLR 46 45     96%     30.14 30.14      
Apr 21 03:53 Calm 10 Clear CLR 45 43     93%     30.15 30.15      
Apr 21 02:53 Calm 10 Clear CLR 46 43     89%     30.15 30.14      
Apr 21 01:53 ENE 5 10 Clear CLR 45 43     93% 43   30.15 30.14      
Apr 21 00:53 Calm 10 Clear CLR 46 44     93%     30.18 30.17      
Apr 20 23:53 Calm 10 Clear CLR 47 44     90%     30.18 30.17      
Apr 20 22:53 Calm 10 Clear CLR 48 45     89%     30.2 30.2      
Apr 20 21:53 ENE 3 10 Clear CLR 50 45     83% 49   30.19 30.18      
Apr 20 20:53 Calm 10 Clear CLR 54 44     69%     30.19 30.19      
Apr 20 19:53 E 3 10 Clear CLR 59 41     51%     30.19 30.18      
Apr 20 18:53 E 8 10 Clear CLR 65 39     38%     30.18 30.17      
Apr 20 17:53 E 9 10 Clear CLR 68 37     32%     30.19 30.18      
Apr 20 16:53 NE 11 10 Clear CLR 69 37     31%     30.2 30.2      
Apr 20 15:53 NE 8 10 Clear CLR 68 36     31%     30.23 30.22      
Apr 20 14:53 NE 9 10 Clear   67 36     32%     30.27 30.27      
Apr 20 13:53 NE 14 10 Clear   64 36     35%     30.3 30.29      
Apr 20 12:53 E 9 10 Clear CLR 62 38     41%     30.33 30.32      
Apr 20 11:53 E 6 10 Clear CLR 58 37     46%     30.36 30.36      
Apr 20 10:53 E 13 10 Clear CLR 56 36     47%     30.37 30.37      
Apr 20 09:53 ENE 14 10 Clear CLR 53 39     59%     30.37 30.37      
Apr 20 08:53 ENE 15 10 Clear CLR 50 39     66% 45   30.37 30.37      
Apr 20 07:53 NE 11 10 Clear CLR 44 40     85% 38   30.36 30.36      
Apr 20 06:53 NNE 6 10 Clear CLR 41 38     89% 37   30.36 30.36      
Apr 20 05:53 N 5 10 Clear CLR 40 38     93% 37   30.35 30.35      
Apr 20 04:53 NNE 5 10 Clear CLR 41 38     89% 38   30.33 30.33      
Apr 20 03:53 NE 5 10 Clear CLR 41 38     89% 38   30.33 30.33      
Apr 20 02:53 Calm 10 Clear CLR 42 38     85%     30.33 30.33      
Apr 20 01:53 Calm 10 Clear   43 39     86%     30.34 30.33      
Apr 20 00:53 Calm 10 Clear CLR 46 38     73%     30.34 30.34      
Jun 08 23:53 Calm 10 Clear CLR 63 59     87%     29.95 29.93      
Jun 06 05:53 N 6 10 Cloudy OVC004 71 70     96%   72 29.78 29.76      
Jun 06 01:25 N 3 10 Cloudy SCT006 BKN011 OVC030 71 69     93%   72 29.78